When you browse on this site, cookies collect data to enhance your experience and personalize the content and advertising you see.
Visit our Privacy Policy to learn more. By continuing to use the site, you agree to this use of cookies and data.
  • In Hungary
  • List of Countries
  • For 7 days
  • Water Temperature
  • Satellite Maps
  • Weather Map
  • News
  • Weather Widgets
  • user-avatar
    Login

    Hourly Weather Sozopol

    Today, 18 November, Sunday

    Time Temperature Precipitation Wind Pressure Humidity
    00:00 +2°C° 0.3 mm 8 mps 767 mmHg 85%
    01:00 +2°C° 0.3 mm 8 mps 767 mmHg 85%
    02:00 +2°C° 0.3 mm 8 mps 767 mmHg 86%
    03:00 +2°C° 0.2 mm 8 mps 766 mmHg 86%
    04:00 +2°C° 0.2 mm 8 mps 766 mmHg 86%
    05:00 +2°C° 0.2 mm 8 mps 766 mmHg 86%
    06:00 +2°C° 0.1 mm 8 mps 766 mmHg 86%
    07:00 +2°C° 0.1 mm 8 mps 765 mmHg 86%
    08:00 +3°C° 0.1 mm 7 mps 765 mmHg 86%
    09:00 +4°C° 0.1 mm 7 mps 765 mmHg 85%
    10:00 +4°C° 0.1 mm 7 mps 765 mmHg 84%
    11:00 +5°C° 0.1 mm 7 mps 764 mmHg 83%
    12:00 +6°C° 0.1 mm 7 mps 764 mmHg 82%
    13:00 +6°C° 0.1 mm 7 mps 763 mmHg 82%
    14:00 +7°C° 0.1 mm 8 mps 762 mmHg 82%
    15:00 +7°C° 0.4 mm 8 mps 762 mmHg 84%
    16:00 +7°C° 0.4 mm 8 mps 761 mmHg 86%
    17:00 +7°C° 0.4 mm 9 mps 761 mmHg 88%
    18:00 +7°C° 0.9 mm 9 mps 760 mmHg 89%
    19:00 +7°C° 0.9 mm 9 mps 759 mmHg 89%
    20:00 +7°C° 0.9 mm 9 mps 759 mmHg 90%
    21:00 +7°C° 1.1 mm 10 mps 758 mmHg 90%
    22:00 +8°C° 1.1 mm 10 mps 758 mmHg 91%
    23:00 +8°C° 1.1 mm 10 mps 757 mmHg 91%

    Tomorrow, 19 November, Monday

    Time Temperature Precipitation Wind Pressure Humidity
    00:00 +8°C° 1.8 mm 10 mps 756 mmHg 91%
    01:00 +8°C° 1.8 mm 9 mps 755 mmHg 92%
    02:00 +8°C° 1.8 mm 9 mps 755 mmHg 92%
    03:00 +9°C° 4 mm 8 mps 754 mmHg 93%
    04:00 +10°C° 4 mm 8 mps 753 mmHg 94%
    05:00 +10°C° 4 mm 7 mps 753 mmHg 95%
    06:00 +10°C° 2.1 mm 6 mps 753 mmHg 94%
    07:00 +10°C° 2.1 mm 6 mps 752 mmHg 93%
    08:00 +10°C° 2.1 mm 6 mps 752 mmHg 92%
    09:00 +10°C° 0 mm 6 mps 753 mmHg 90%
    10:00 +9°C° 0 mm 6 mps 753 mmHg 87%
    11:00 +9°C° 0 mm 6 mps 754 mmHg 84%
    12:00 +9°C° 0 mm 6 mps 754 mmHg 82%
    13:00 +9°C° 0 mm 6 mps 755 mmHg 79%
    14:00 +9°C° 0 mm 6 mps 755 mmHg 76%
    15:00 +9°C° 0 mm 6 mps 756 mmHg 78%
    16:00 +8°C° 0 mm 6 mps 757 mmHg 80%
    17:00 +7°C° 0 mm 6 mps 757 mmHg 82%
    18:00 +5°C° 0 mm 6 mps 758 mmHg 83%
    19:00 +5°C° 0 mm 6 mps 759 mmHg 84%
    20:00 +4°C° 0 mm 6 mps 760 mmHg 85%
    21:00 +3°C° 0 mm 5 mps 761 mmHg 85%
    22:00 +3°C° 0 mm 5 mps 761 mmHg 85%
    23:00 +3°C° 0 mm 5 mps 762 mmHg 85%

    Day after tomorrow, 20 November, Tuesday

    Time Temperature Precipitation Wind Pressure Humidity
    00:00 +4°C° 0 mm 4 mps 762 mmHg 86%
    01:00 +3°C° 0 mm 4 mps 763 mmHg 86%
    02:00 +3°C° 0 mm 4 mps 763 mmHg 87%
    03:00 +3°C° 0 mm 3 mps 763 mmHg 88%
    04:00 +3°C° 0 mm 3 mps 763 mmHg 89%
    05:00 +2°C° 0 mm 3 mps 763 mmHg 90%
    06:00 +3°C° 0 mm 3 mps 763 mmHg 90%
    07:00 +3°C° 0 mm 3 mps 764 mmHg 90%
    08:00 +4°C° 0 mm 2 mps 764 mmHg 90%
    09:00 +4°C° 0 mm 3 mps 764 mmHg 86%
    10:00 +7°C° 0 mm 3 mps 764 mmHg 83%
    11:00 +8°C° 0 mm 3 mps 764 mmHg 80%
    12:00 +8°C° 0 mm 3 mps 763 mmHg 81%
    13:00 +9°C° 0 mm 3 mps 763 mmHg 82%
    14:00 +8°C° 0 mm 4 mps 762 mmHg 83%
    15:00 +8°C° 0 mm 4 mps 762 mmHg 86%
    16:00 +8°C° 0 mm 4 mps 762 mmHg 89%
    17:00 +8°C° 0 mm 4 mps 761 mmHg 92%
    18:00 +8°C° 0.1 mm 5 mps 761 mmHg 93%
    19:00 +9°C° 0.1 mm 5 mps 761 mmHg 94%
    20:00 +9°C° 0.1 mm 5 mps 761 mmHg 95%
    21:00 +9°C° 0.2 mm 5 mps 760 mmHg 96%
    22:00 +10°C° 0.2 mm 5 mps 760 mmHg 96%
    23:00 +10°C° 0.2 mm 5 mps 760 mmHg 97%

    21 November, Wednesday

    Time Temperature Precipitation Wind Pressure Humidity
    00:00 +10°C° 0.3 mm 5 mps 759 mmHg 97%
    01:00 +11°C° 0.3 mm 4 mps 759 mmHg 97%
    02:00 +12°C° 0.3 mm 4 mps 758 mmHg 97%
    03:00 +12°C° 0.4 mm 4 mps 758 mmHg 97%
    04:00 +12°C° 0.4 mm 4 mps 757 mmHg 97%
    05:00 +12°C° 0.4 mm 4 mps 757 mmHg 97%
    06:00 +12°C° 1.3 mm 4 mps 756 mmHg 97%
    07:00 +13°C° 1.3 mm 4 mps 756 mmHg 97%
    08:00 +13°C° 1.3 mm 4 mps 755 mmHg 96%
    09:00 +13°C° 1.4 mm 5 mps 755 mmHg 96%
    10:00 +13°C° 1.4 mm 5 mps 755 mmHg 95%
    11:00 +14°C° 1.4 mm 5 mps 754 mmHg 94%
    12:00 +15°C° 0.8 mm 6 mps 754 mmHg 90%
    13:00 +16°C° 0.8 mm 6 mps 753 mmHg 85%
    14:00 +16°C° 0.8 mm 6 mps 753 mmHg 80%
    15:00 +16°C° 0.2 mm 5 mps 753 mmHg 82%
    16:00 +15°C° 0.2 mm 5 mps 753 mmHg 84%
    17:00 +14°C° 0.2 mm 4 mps 753 mmHg 86%
    18:00 +13°C° 0.2 mm 4 mps 753 mmHg 87%
    19:00 +13°C° 0.2 mm 4 mps 753 mmHg 88%
    20:00 +12°C° 0.2 mm 3 mps 754 mmHg 89%
    21:00 +12°C° 0.1 mm 4 mps 754 mmHg 88%
    22:00 +10°C° 0.1 mm 5 mps 754 mmHg 86%
    23:00 +10°C° 0.1 mm 6 mps 755 mmHg 85%

    22 November, Thursday

    Time Temperature Precipitation Wind Pressure Humidity
    00:00 +10°C° 0 mm 6 mps 755 mmHg 84%
    01:00 +10°C° 0 mm 6 mps 755 mmHg 84%
    02:00 +10°C° 0 mm 6 mps 756 mmHg 84%
    03:00 +9°C° 0.1 mm 7 mps 756 mmHg 85%
    04:00 +9°C° 0.1 mm 8 mps 757 mmHg 85%
    05:00 +9°C° 0.1 mm 8 mps 757 mmHg 86%
    06:00 +7°C° 0.1 mm 9 mps 758 mmHg 86%
    07:00 +6°C° 0.1 mm 9 mps 758 mmHg 86%
    08:00 +6°C° 0.1 mm 9 mps 759 mmHg 85%
    09:00 +5°C° 0.1 mm 9 mps 759 mmHg 85%
    10:00 +5°C° 0.1 mm 9 mps 760 mmHg 85%
    11:00 +5°C° 0.1 mm 8 mps 761 mmHg 84%
    12:00 +5°C° 0.1 mm 8 mps 761 mmHg 84%
    13:00 +5°C° 0.1 mm 8 mps 761 mmHg 84%
    14:00 +5°C° 0.1 mm 7 mps 761 mmHg 83%
    15:00 +5°C° 0.1 mm 7 mps 762 mmHg 84%
    16:00 +5°C° 0.1 mm 7 mps 762 mmHg 84%
    17:00 +5°C° 0.1 mm 6 mps 763 mmHg 85%
    18:00 +5°C° 0.1 mm 6 mps 763 mmHg 85%
    19:00 +4°C° 0.1 mm 6 mps 764 mmHg 86%
    20:00 +4°C° 0.1 mm 6 mps 764 mmHg 86%
    21:00 +4°C° 0 mm 6 mps 764 mmHg 87%
    22:00 +4°C° 0 mm 6 mps 765 mmHg 88%
    23:00 +5°C° 0 mm 5 mps 765 mmHg 89%

    23 November, Friday

    Time Temperature Precipitation Wind Pressure Humidity
    00:00 +3°C° 0.1 mm 6 mps 765 mmHg 89%
    01:00 +3°C° 0.1 mm 6 mps 765 mmHg 89%
    02:00 +3°C° 0.1 mm 6 mps 765 mmHg 89%
    03:00 +3°C° 0 mm 6 mps 766 mmHg 89%
    04:00 +3°C° 0 mm 6 mps 766 mmHg 89%
    05:00 +3°C° 0 mm 5 mps 766 mmHg 89%
    06:00 +3°C° 0 mm 5 mps 766 mmHg 89%
    07:00 +3°C° 0 mm 5 mps 767 mmHg 89%
    08:00 +3°C° 0 mm 5 mps 767 mmHg 88%
    09:00 +5°C° 0 mm 5 mps 767 mmHg 85%
    10:00 +6°C° 0 mm 5 mps 767 mmHg 82%
    11:00 +7°C° 0 mm 5 mps 767 mmHg 79%
    12:00 +7°C° 0 mm 5 mps 767 mmHg 78%
    13:00 +7°C° 0 mm 5 mps 767 mmHg 76%
    14:00 +8°C° 0 mm 5 mps 767 mmHg 74%
    15:00 +7°C° 0 mm 5 mps 767 mmHg 76%
    16:00 +7°C° 0 mm 5 mps 767 mmHg 78%
    17:00 +6°C° 0 mm 5 mps 768 mmHg 80%
    18:00 +6°C° 0 mm 5 mps 768 mmHg 81%
    19:00 +5°C° 0 mm 4 mps 768 mmHg 82%
    20:00 +5°C° 0 mm 4 mps 768 mmHg 83%
    21:00 +5°C° 0 mm 4 mps 768 mmHg 83%
    22:00 +4°C° 0 mm 4 mps 768 mmHg 84%
    23:00 +4°C° 0 mm 3 mps 768 mmHg 85%
    Show more